Location: Jodlow
(50.1500°N, 16.7500°E)
Time: 12:47:47
(UTC+02:00)

O/OREOS (USA 219) - Pass Details

Date: 01 March 2024
Orbit: 621 x 646 km, 72.0° (Epoch: 22 May)

Event Time Altitude Azimuth Distance (km) Brightness Sun altitude
Rises 05:41:08 0° 216° (SW) 2,935 ? -9.5°
Reaches altitude 10° 05:43:25 10° 219° (SW) 2,033 ? -9.2°
Maximum altitude 05:47:57 61° 300° (WNW) 732 ? -8.5°
Drops below altitude 10° 05:52:32 10° 22° (NNE) 2,055 ? -7.7°
Sets 05:54:51 0° 26° (NNE) 2,970 ? -7.3°
